NOAA 16 DEB, 42369

Orbit data source: Space-Track

NOAA 16 DEB, 42369 is space debris in SSO originally from a launch on Thu, 21 Sep 2000 UTC launched from the Air Force Western Test Range (AFWTR). Debris objects in space refer to the collection of defunct objects orbiting the Earth. Examples of debris include non-operational satellites, rocket bodies, and fragments generated from explosions, collisions, or faulty payload assembly.

Loading next visibility...
NOAA 16 DEB details
Identifier
42369, 2000-055RM
Orbit
SSO
Last TLE update1 day ago
Origin
Flag of USNOAA (US)
ManufacturerUnknown
MissionSpacecraft
Bus & MotorUnknown
MassUnknown
Launch date (UTC)
2000-09-21 (24 years ago)
Launch vehicleUnknown
Launch site
Air Force Western Test Range (AFWTR)
Object type
Payload
Rocket body
Debris
Shape & HBRUnknown
Radar Cross SectionSmall (<0.1 m²)

Expand to show TLE details & history

TLE from 1 day ago
0 NOAA 16 DEB
1 42369U 00055RM  24360.21752199  .00086099  00000-0  17068-1 0  9990
2 42369  98.7487 102.4711 0013485 309.3367  50.6636 14.61665722459393
Epoch: 2024-12-25T05:13Z
Definitive object data (Epoch: 2024-12-25T05:13:13.899Z)
Latitude-0.0001°
Longitude-70.05123°
Altitude684.737 km
Speed7.517 km/s
True Right ascension06h 49m 53s
True Declination0° 00' 00"
Sunlit
Object was in full shadow at TLE epoch
Visualization TLE readout
Latitude25.83103°
Longitude-72.99232°
Altitude688.741 km
Speed7.515 km/s
Apparent Right ascension03h 23m 46s
Apparent Declination-10° 44' 52"
Sunlit
Object is in full shadow
Visualization observer readout
Local Sidereal Time10:15:50
Azimuth269.935° W
Elevation-16.818°
Doppler factor1
Orbital elements
Apogee altitude694.43 km
Perigee altitude675.381 km
Semi-major axis7,063.043 km
Eccentricity0.0013485
Inclination98.7487°
RAAN102.4711°
Arg. of periapsis309.3367°
True anomaly50.78324°
Mean anomaly50.6636°
Eccentric anomaly50.72341°
Mean motion3.65641 °/min
BSTAR0.017068
Orbital period98.46 mins
Loading maneuver chart data...
Loading historical data...
Loading historical data...
Loading historical data...
Loading historical data...
Loading historical data...
Loading historical data...
Loading historical data...

NOAA 16 DEB Visibility forecast

Observer location: undefined°, undefined

Span
Click to sort rows by Start time (UTC) header in descending order
Start Az.
Max El. time (UTC)
Max El. Az.
Max El.
End time (UTC)
End Az.
8 mins2024-12-26 19:34:34.304Z26.337° NE2024-12-26 19:38:34.304Z92.674° ESE37.081°2024-12-26 19:42:34.304Z172.964° S
4 mins2024-12-26 21:14:34.304Z314° NW2024-12-26 21:15:34.304Z298.435° NW16.739°2024-12-26 21:18:34.304Z257.241° W
7 mins2024-12-27 06:38:34.304Z140.242° SSE2024-12-27 06:41:34.304Z69.271° E38.063°2024-12-27 06:45:34.304Z358.322° N
4 mins2024-12-27 08:17:34.304Z244.765° WSW2024-12-27 08:19:34.304Z273.706° WNW14.553°2024-12-27 08:21:34.304Z300.126° NW
|